DW9982 Weather Reports


Display with metric or nautical units.
time (UTC)temp
F
wind
direction
speed
MPH
gust
MPH
rain 1hr
in
rain 24hr
in
rain mn
in
humidity
%
barometer
mb
20260505041516 70 122 0.0 10.0 0.00 0.00 0.00 73 1003.3
20260505041013 70 136 2.0 10.0 0.00 0.00 0.00 73 1003.5
20260505040513 70 115 3.0 10.0 0.00 0.00 0.00 73 1003.6
20260505040019 70 106 1.0 6.0 0.00 0.00 0.00 73 1003.5
20260505035512 70 106 0.0 1.0 0.00 0.00 0.00 73 1003.5
20260505035012 71 105 0.0 2.0 0.00 0.00 0.00 73 1003.6
20260505034512 71 145 0.0 3.0 0.00 0.00 0.00 72 1003.7
20260505034016 71 104 0.0 3.0 0.00 0.00 0.00 72 1003.6
20260505033512 71 101 0.0 1.0 0.00 0.00 0.00 71 1003.6
20260505033012 72 134 0.0 0.0 0.00 0.00 0.00 71 1003.6
20260505032512 72 145 0.0 0.0 0.00 0.00 0.00 70 1003.6
20260505032013 72 122 0.0 0.0 0.00 0.00 0.00 69 1003.5
20260505031510 72 127 0.0 4.0 0.00 0.00 0.00 69 1003.5
20260505031014 72 147 0.0 6.0 0.00 0.00 0.00 69 1003.4
20260505030513 72 160 0.0 9.0 0.00 0.00 0.00 68 1003.4
20260505030022 72 148 1.0 9.0 0.00 0.00 0.00 68 1003.4
20260505025511 72 164 0.0 1.0 0.00 0.00 0.00 68 1003.3
20260505025011 72 145 0.0 0.0 0.00 0.00 0.00 68 1003.2
20260505024510 73 148 0.0 0.0 0.00 0.00 0.00 67 1003.2
20260505024010 73 149 0.0 0.0 0.00 0.00 0.00 67 1003.0
20260505023509 73 113 0.0 0.0 0.00 0.00 0.00 66 1003.0
20260505023009 73 148 0.0 0.0 0.00 0.00 0.00 66 1002.9
20260505022509 73 155 0.0 0.0 0.00 0.00 0.00 65 1002.7
20260505022009 73 145 0.0 0.0 0.00 0.00 0.00 64 1002.7
20260505021509 73 142 0.0 0.0 0.00 0.00 0.00 64 1002.6
20260505021009 73 142 0.0 0.0 0.00 0.00 0.00 64 1002.5
20260505020508 74 148 0.0 0.0 0.00 0.00 0.00 63 1002.4
20260505020008 74 134 0.0 0.0 0.00 0.00 0.00 63 1002.4
20260505015508 74 134 0.0 0.0 0.00 0.00 0.00 63 1002.4
20260505015008 74 147 0.0 0.0 0.00 0.00 0.00 63 1002.3
20260505014507 74 143 0.0 0.0 0.00 0.00 0.00 62 1002.2
20260505014008 75 143 0.0 0.0 0.00 0.00 0.00 62 1002.2
20260505013507 75 142 0.0 0.0 0.00 0.00 0.00 62 1002.1
20260505013007 75 143 0.0 0.0 0.00 0.00 0.00 61 1002.0
20260505012507 75 213 0.0 0.0 0.00 0.00 0.00 60 1002.0
20260505012010 76 212 0.0 0.0 0.00 0.00 0.00 59 1001.9
20260505011510 76 218 0.0 0.0 0.00 0.00 0.00 58 1001.8
20260505011008 77 218 0.0 0.0 0.00 0.00 0.00 57 1001.7
20260505010506 77 218 0.0 0.0 0.00 0.00 0.00 57 1001.7
20260505010006 78 174 0.0 0.0 0.00 0.00 0.00 56 1001.6
20260505005506 78 143 0.0 0.0 0.00 0.00 0.00 55 1001.5
20260505005006 79 141 0.0 0.0 0.00 0.00 0.00 55 1001.5
20260505004508 79 141 0.0 0.0 0.00 0.00 0.00 53 1001.4
20260505004005 80 132 0.0 0.0 0.00 0.00 0.00 53 1001.3
20260505003510 80 156 0.0 0.0 0.00 0.00 0.00 52 1001.3
20260505003005 80 155 0.0 0.0 0.00 0.00 0.00 52 1001.3
20260505002505 80 132 0.0 0.0 0.00 0.00 0.00 52 1001.2
20260505002004 79 132 0.0 0.0 0.00 0.00 0.00 52 1001.3
20260505001504 79 138 0.0 0.0 0.00 0.00 0.00 52 1001.3
20260505001003 80 125 0.0 4.0 0.00 0.00 0.00 51 1001.3
20260505000503 80 239 0.0 4.0 0.00 0.00 0.00 51 1001.3
20260505000004 80 238 0.0 4.0 0.00 0.00 0.00 51 1001.3
20260504235503 80 271 0.0 5.0 0.00 0.00 0.00 50 1001.3
20260504235003 80 122 0.0 5.0 0.00 0.00 0.00 50 1001.3
20260504234505 81 132 0.0 6.0 0.00 0.00 0.00 48 1001.2
20260504234002 81 132 0.0 6.0 0.00 0.00 0.00 48 1001.3
20260504233503 81 273 0.0 2.0 0.00 0.00 0.00 47 1001.4
20260504233002 82 255 0.0 1.0 0.00 0.00 0.00 47 1001.3
20260504232501 82 131 0.0 4.0 0.00 0.00 0.00 46 1001.4
20260504232002 83 150 0.0 4.0 0.00 0.00 0.00 45 1001.4
20260504231501 83 158 0.0 4.0 0.00 0.00 0.00 45 1001.3
20260504231100 83 215 0.0 2.0 0.00 0.00 0.00 45 1001.4
20260504230559 83 257 0.0 4.0 0.00 0.00 0.00 45 1001.5
20260504230058 83 264 0.0 7.0 0.00 0.00 0.00 47 1001.4
20260504225602 82 283 1.0 7.0 0.00 0.00 0.00 47 1001.4
20260504225100 81 204 0.0 4.0 0.00 0.00 0.00 48 1001.4
20260504224601 81 250 0.0 7.0 0.00 0.00 0.00 47 1001.4
20260504224057 81 243 0.0 8.0 0.00 0.00 0.00 47 1001.4
20260504223556 81 214 2.0 8.0 0.00 0.00 0.00 47 1001.5
20260504223057 81 259 0.0 6.0 0.00 0.00 0.00 48 1001.5
20260504222556 81 232 0.0 4.0 0.00 0.00 0.00 47 1001.5
20260504222055 81 259 0.0 11.0 0.00 0.00 0.00 47 1001.6
20260504221555 81 142 1.0 11.0 0.00 0.00 0.00 47 1001.5
20260504221054 80 134 1.0 5.0 0.00 0.00 0.00 47 1001.6
20260504220556 80 129 0.0 3.0 0.00 0.00 0.00 47 1001.6
20260504220112 80 186 0.0 4.0 0.00 0.00 0.00 47 1001.7
20260504215553 81 249 0.0 4.0 0.00 0.00 0.00 46 1001.8
20260504215057 81 240 0.0 7.0 0.00 0.00 0.00 45 1001.8
20260504214556 81 219 0.0 9.0 0.00 0.00 0.00 45 1001.8
20260504214052 81 236 1.0 9.0 0.00 0.00 0.00 44 1001.8
20260504213551 81 259 0.0 4.0 0.00 0.00 0.00 45 1001.9
20260504213058 81 148 0.0 16.0 0.00 0.00 0.00 44 1001.9
20260504212551 81 145 2.0 16.0 0.00 0.00 0.00 43 1001.9
20260504212051 82 232 0.0 14.0 0.00 0.00 0.00 43 1001.9
20260504211554 82 248 2.0 12.0 0.00 0.00 0.00 44 1001.9
20260504211053 82 36 4.0 11.0 0.00 0.00 0.00 44 1001.9
20260504210549 82 108 0.0 13.0 0.00 0.00 0.00 44 1001.9
20260504210051 82 237 0.0 14.0 0.00 0.00 0.00 45 1002.0
20260504205552 82 250 2.0 13.0 0.00 0.00 0.00 44 1002.0
20260504205049 82 127 2.0 13.0 0.00 0.00 0.00 42 1002.1
20260504204548 82 256 3.0 13.0 0.00 0.00 0.00 42 1002.0
20260504204047 82 170 1.0 13.0 0.00 0.00 0.00 43 1002.1
20260504203546 82 129 0.0 11.0 0.00 0.00 0.00 44 1002.1
20260504203045 82 243 2.0 15.0 0.00 0.00 0.00 44 1002.2
20260504202545 82 166 3.0 9.0 0.00 0.00 0.00 42 1002.3
20260504202045 82 242 0.0 18.0 0.00 0.00 0.00 44 1002.3
20260504201543 82 171 3.0 17.0 0.00 0.00 0.00 44 1002.3
20260504201045 82 248 2.0 10.0 0.00 0.00 0.00 44 1002.3
20260504200544 82 231 3.0 10.0 0.00 0.00 0.00 44 1002.3
20260504200049 82 122 0.0 10.0 0.00 0.00 0.00 46 1002.4
20260504195542 82 169 1.0 13.0 0.00 0.00 0.00 45 1002.4
20260504195042 82 162 2.0 13.0 0.00 0.00 0.00 45 1002.4
20260504194545 81 99 1.0 8.0 0.00 0.00 0.00 46 1002.4
20260504194043 81 147 0.0 12.0 0.00 0.00 0.00 45 1002.4
20260504193541 81 136 3.0 12.0 0.00 0.00 0.00 45 1002.5
20260504193039 81 91 0.0 13.0 0.00 0.00 0.00 48 1002.4
20260504192539 81 242 3.0 13.0 0.00 0.00 0.00 45 1002.5
20260504192038 81 176 3.0 13.0 0.00 0.00 0.00 46 1002.5
20260504191550 80 130 3.0 13.0 0.00 0.00 0.00 45 1002.5
20260504191038 80 127 2.0 12.0 0.00 0.00 0.00 47 1002.6
20260504190536 80 132 1.0 16.0 0.00 0.00 0.00 46 1002.6
20260504190038 80 235 5.0 16.0 0.00 0.00 0.00 46 1002.6
20260504185535 80 274 3.0 11.0 0.00 0.00 0.00 44 1002.6
20260504185034 80 165 3.0 15.0 0.00 0.00 0.00 44 1002.7
20260504184545 80 232 4.0 15.0 0.00 0.00 0.00 46 1002.8
20260504184034 80 127 6.0 15.0 0.00 0.00 0.00 44 1002.7
20260504183536 80 267 2.0 17.0 0.00 0.00 0.00 44 1002.9
20260504183041 80 129 2.0 11.0 0.00 0.00 0.00 46 1002.8
20260504182532 80 293 0.0 7.0 0.00 0.00 0.00 45 1002.8
20260504182035 80 267 1.0 11.0 0.00 0.00 0.00 45 1002.8
20260504181531 79 129 0.0 16.0 0.00 0.00 0.00 47 1002.9
20260504181029 79 139 4.0 16.0 0.00 0.00 0.00 46 1002.9
20260504180528 78 184 2.0 9.0 0.00 0.00 0.00 47 1003.0
20260504180029 78 250 4.0 13.0 0.00 0.00 0.00 46 1003.1
20260504175527 78 114 0.0 16.0 0.00 0.00 0.00 46 1003.1
20260504175030 78 203 2.0 11.0 0.00 0.00 0.00 46 1003.2
20260504174525 78 290 0.0 11.0 0.00 0.00 0.00 46 1003.3
20260504174024 78 215 2.0 16.0 0.00 0.00 0.00 47 1003.3
20260504173523 78 239 6.0 16.0 0.00 0.00 0.00 46 1003.4
20260504173026 78 73 1.0 13.0 0.00 0.00 0.00 48 1003.4
20260504172524 78 148 4.0 13.0 0.00 0.00 0.00 47 1003.4
20260504172021 77 193 5.0 13.0 0.00 0.00 0.00 48 1003.5
20260504171520 77 106 1.0 15.0 0.00 0.00 0.00 50 1003.5
20260504171022 76 145 4.0 15.0 0.00 0.00 0.00 49 1003.5
20260504170519 76 267 4.0 14.0 0.00 0.00 0.00 49 1003.5
20260504151057 71 240 4.0 14.0 0.00 0.00 0.00 53 1004.0
20260504150559 71 155 3.0 12.0 0.00 0.00 0.00 54 1004.0
20260504141047 69 156 0.0 12.0 0.00 0.00 0.00 57 1004.4
20260504140547 68 153 7.0 12.0 0.00 0.00 0.00 56 1004.3
20260504130539 66 132 0.0 8.0 0.00 0.00 0.00 58 1004.4
20260504110532 65 110 0.0 0.0 0.00 0.00 0.00 57 1004.9
20260504100529 66 267 0.0 10.0 0.00 0.00 0.00 54 1004.9
20260504081513 63 128 1.0 6.0 0.00 0.00 0.00 60 1005.7
20260504081012 63 135 0.0 0.0 0.00 0.00 0.00 60 1005.8
20260504080511 63 145 0.0 0.0 0.00 0.00 0.00 61 1005.9
20260504050544 61 278 0.0 0.0 0.00 0.00 0.00 77 1008.2
20260504045543 61 278 0.0 1.0 0.00 0.00 0.00 78 1008.2
20260504045042 61 133 0.0 0.0 0.00 0.00 0.00 78 1008.0
20260504044548 61 132 0.0 0.0 0.00 0.00 0.00 78 1008.0
20260504044042 61 132 0.0 0.0 0.00 0.00 0.00 77 1007.9
20260504043542 62 132 0.0 0.0 0.00 0.00 0.00 76 1007.9
20260504043041 62 132 0.0 0.0 0.00 0.00 0.00 75 1007.9
20260504042540 62 133 0.0 0.0 0.00 0.00 0.00 74 1007.9
20260504042041 63 133 0.0 0.0 0.00 0.00 0.00 73 1007.9